Location: Montreal
(45.5000°N, 73.5830°W)
Time: 15:38:52
(UTC-05:00)

N. Korean satellite - Visible Passes

Search period start: 18 December 2017 00:00
Search period end: 28 December 2017 00:00
Orbit: 461 x 513 km, 97.2° (Epoch: 17 December)

Date Brightness Start Highest point End Pass type
(mag) Time Alt. Az. Time Alt. Az. Time Alt. Az.
18 Dec 9.8 05:46:38 10° NE 05:49:03 16° E 05:51:25 10° SE visible
18 Dec 6.9 17:56:55 10° S 18:00:38 70° W 18:04:24 10° NNW visible
19 Dec 6.6 06:55:32 10° N 06:59:13 70° WNW 07:02:48 10° SSW visible
19 Dec 6.6 17:33:24 10° SSE 17:37:05 59° ENE 17:40:49 10° N visible
19 Dec 10.2 19:09:55 10° WSW 19:10:58 11° W 19:12:01 10° WNW visible
20 Dec 7.3 06:32:00 10° NNE 06:35:38 58° E 06:39:11 10° S visible
20 Dec 7.4 17:10:16 10° SE 17:13:36 31° ENE 17:16:59 10° N visible
20 Dec 9.4 18:44:21 10° SW 18:47:10 20° W 18:50:00 10° NW visible
21 Dec 8.8 06:08:43 10° NNE 06:11:58 29° E 06:15:08 10° SSE visible
21 Dec 8.1 16:47:35 10° ESE 16:50:12 18° ENE 16:52:50 10° NNE visible
21 Dec 8.3 18:19:58 10° SSW 18:23:27 36° W 18:26:58 10° NNW visible
22 Dec 9.8 05:45:53 10° NE 05:48:12 16° E 05:50:29 10° SE visible
22 Dec 6.9 17:56:04 10° S 17:59:48 72° WSW 18:03:35 10° NNW visible
23 Dec 6.5 06:54:42 10° N 06:58:22 71° WNW 07:01:55 10° SSW visible
23 Dec 6.7 17:32:33 10° SSE 17:36:15 59° ENE 17:39:57 10° N visible
23 Dec 10.1 19:08:58 10° WSW 19:10:07 11° W 19:11:16 10° WNW visible
24 Dec 7.3 06:31:10 10° NNE 06:34:45 56° E 06:38:16 10° S visible
24 Dec 7.4 17:09:26 10° SE 17:12:45 31° ENE 17:16:07 10° N visible
24 Dec 9.4 18:43:28 10° SW 18:46:19 20° W 18:49:10 10° NW visible
25 Dec 8.8 06:07:52 10° NE 06:11:04 28° E 06:14:12 10° SSE visible
25 Dec 8.2 18:19:05 10° SSW 18:22:35 37° W 18:26:06 10° NNW visible
26 Dec 9.8 05:45:03 10° NE 05:47:18 16° E 05:49:30 10° SE visible
26 Dec 6.9 17:55:11 10° S 17:58:56 73° WSW 18:02:42 10° NNW visible
27 Dec 6.5 06:53:50 10° N 06:57:27 73° WNW 07:00:58 10° SSW visible
27 Dec 6.7 17:31:40 10° SSE 17:35:21 57° ENE 17:39:03 10° N visible
27 Dec 10.1 19:08:00 10° WSW 19:09:13 11° W 19:10:25 10° WNW visible
